Location: Chinna Viriv?da
(16.5281°N, 81.0493°E)
Time: 11:50:25
(UTC+00:00)

Cosmos 2219 Rocket - Pass Details

Date: 14 April 2026
Orbit: 826 x 846 km, 71.0° (Epoch: 21 May)

Event Time Altitude Azimuth Distance (km) Brightness Sun altitude
Rises 13:08:13 0° 204° (SSW) 3,355 5.5 -4.9°
Reaches altitude 10° 13:10:40 10° 208° (SSW) 2,421 4.8 -5.4°
Maximum altitude 13:16:08 60° 287° (WNW) 941 2.9 -6.7°
Drops below altitude 10° 13:21:36 10° 7° (N) 2,422 4.7 -8.0°
Sets 13:24:04 0° 11° (N) 3,356 5.3 -8.6°
